Weather History for KRIV - July, 2013

Change the Weather History Date:

Tuesday, July 9, 2013

  Actual Average (KRAL) Record (KRAL)
Temperature  
Mean Temperature 83 °F 78 °F  
Max Temperature 104 °F 92 °F 107 °F (1908)
Min Temperature 64 °F 63 °F 47 °F (1948)
Degree Days  
Heating Degree Days 0 0  
Month to date heating degree days 0  
Since 1 June heating degree days 2  
Since 1 July heating degree days 0  
Cooling Degree Days 18 13  
Month to date cooling degree days 106  
Year to date cooling degree days 503  
Since 1 June cooling degree days 326  
Growing Degree Days 33 (Base 50)    
Moisture  
Dew Point 53 °F    
Average Humidity 37    
Maximum Humidity 54    
Minimum Humidity 17    
Precipitation  
Precipitation 0.00 in 0.00 in 0.00 in (2002)
Month to date precipitation 0.01  
Year to date precipitation 9.20  
Since 1 July precipitation 0.01  
Snow  
Snow 0.00 in - - ()
Month to date snowfall  
Year to date snowfall  
Since 1 July snowfall  
Snow Depth -    
Sea Level Pressure  
Sea Level Pressure 29.94 in    
Wind  
Wind Speed 3 mph (NW)    
Max Wind Speed 17 mph    
Max Gust Speed -    
Visibility 10 miles    
Events      
T = Trace of Precipitation, MM = Missing Value Source: NWS Daily Summary

Daily Weather History Graph

Daily Weather History Graph

Search for Another Location

Airport or City:

Trip Planner

Search our weather history database for the weather conditions in past years. The results will help you decide how hot, cold, wet, or windy it might be!

Date:

Astronomy

Jul. 09, 2013 Rise Set
Actual Time 5:45 AM PDT 8:02 PM PDT
Civil Twilight 5:17 AM PDT 8:31 PM PDT
Nautical Twilight 4:41 AM PDT 9:06 PM PDT
Astronomical Twilight 4:03 AM PDT 9:44 PM PDT
Moon 7:08 AM PDT (7/9) 8:50 PM PDT (7/9)
Length of Visible Light 15h 14m
Length of Day
14h 16m
New Moon, 2% of the Moon is Illuminated
Jul 9
New Moon
Jul 15
First Quarter
Jul 22
Full
Jul 29
Last Quarter
Aug 6
New

Hourly Weather History & Observations

Time (PDT) Temp. Heat Index Dew Point Humidity Pressure Visibility Wind Dir Wind Speed Gust Speed Precip Events Conditions
12:58 AM 69.8 °F - 48.2 °F 46% 29.92 in 10.0 mi Calm Calm - N/A   Clear
1:58 AM 69.8 °F - 48.6 °F 47% 29.92 in 10.0 mi Calm Calm - N/A   Partly Cloudy
2:58 AM 69.1 °F - 47.5 °F 46% 29.90 in 10.0 mi Calm Calm - N/A   Clear
3:58 AM 67.5 °F - 47.5 °F 49% 29.90 in 10.0 mi North 4.6 mph - N/A   Scattered Clouds
4:58 AM 66.9 °F - 49.6 °F 54% 29.90 in 10.0 mi Calm Calm - N/A   Mostly Cloudy
5:58 AM 64.9 °F - 46.4 °F 51% 29.93 in 10.0 mi Calm Calm - N/A   Partly Cloudy
6:58 AM 73.4 °F - 51.1 °F 45% 29.94 in 10.0 mi Calm Calm - N/A   Mostly Cloudy
7:58 AM 79.5 °F - 53.8 °F 41% 29.96 in 10.0 mi ENE 1.2 mph - N/A   Partly Cloudy
8:58 AM 85.5 °F - 49.5 °F 29% 29.97 in 10.0 mi Calm Calm - N/A   Partly Cloudy
9:58 AM 88.5 °F 89.2 °F 62.6 °F 42% 29.98 in 10.0 mi Calm Calm - N/A   Partly Cloudy
10:58 AM 93.9 °F 93.6 °F 59.5 °F 32% 29.96 in 10.0 mi North 1.2 mph - N/A   Scattered Clouds
11:58 AM 99.1 °F - 47.5 °F 17% 29.96 in 10.0 mi Calm Calm - N/A   Mostly Cloudy
12:58 PM 102.9 °F - 50.0 °F 17% 29.95 in 10.0 mi West 11.5 mph - N/A   Scattered Clouds
1:58 PM 100.8 °F 99.3 °F 55.8 °F 22% 29.95 in 10.0 mi WNW 16.1 mph - N/A   Clear
2:58 PM 97.9 °F 96.2 °F 55.4 °F 24% 29.95 in 10.0 mi NW 15.0 mph - N/A   Clear
3:58 PM 96.3 °F 94.0 °F 53.6 °F 24% 29.94 in 10.0 mi WNW 17.3 mph - N/A   Clear
4:58 PM 93.6 °F 91.2 °F 54.0 °F 26% 29.94 in 10.0 mi WNW 17.3 mph - N/A   Clear
5:58 PM 91.2 °F - 52.0 °F 26% 29.92 in 10.0 mi NW 16.1 mph - N/A   Clear
6:58 PM 89.1 °F - 52.9 °F 29% 29.91 in 10.0 mi WNW 9.2 mph - N/A   Clear
7:58 PM 85.3 °F 83.8 °F 54.5 °F 35% 29.91 in 10.0 mi NW 8.1 mph - N/A   Clear
8:58 PM 80.6 °F 80.5 °F 55.8 °F 42% 29.92 in 10.0 mi West 3.5 mph - N/A   Clear
9:58 PM 78.6 °F - 55.9 °F 46% 29.93 in 10.0 mi West 2.3 mph - N/A   Clear
10:58 PM 77.0 °F - 57.4 °F 51% 29.95 in 10.0 mi Calm Calm - N/A   Partly Cloudy
11:58 PM 75.9 °F - 56.8 °F 51% 29.94 in 10.0 mi WNW 4.6 mph - N/A   Scattered Clouds